Starlink 11088

operational
NORAD ID: 59709 Int'l Des: 2024-088 Owner: SPXS Country: US Constellation: starlink
LEOCIRCULAR

Starlink 11088について

説明を読み込み中...

リアルタイム位置

3D地球を読み込み中...

次回通過

高度履歴

Altitude vs Time

uPlot chart will show altitude changes over time

軌道要素

1 59709U 24088B 25353.31081616 -.00006897 00000-0 -52112-4 0 9993
2 59709 53.1564 2.8208 0001365 80.8085 279.3087 15.69710077 93641
Epoch: Dec 19, 2025 • Age: 13 hours

現在のステータス

高度 364.7 km
速度 7.70 km/s
衛星直下点 50.14°N, 86.3°E
打ち上げ日 May 10, 2024
運用期間 1.6 years
タイプ internet

技術仕様

分類 Payload
質量 960.00 kg
乾燥質量 910.00 kg
総質量 960.00 kg
長さ 0.30 m
直径 4.10 m
スパン 29.00 m
形状 Box + pan
製造者 SPXS
バスタイプ Starlink V2MD
フェーズステータス In Orbit
所有者/国 SPXS/US

大規模コンステレーション

Loading constellations...